User: anonymous   Login
Location: Unspecified
(0.0000°N, 0.0000°E)
Time: 02:15:50
(UTC+02:00)
Language:

Cosmos 407 Rocket - Orbit

View from above orbital plane
View from above orbital plane
View from above satellite
View from above satellite

Ground track
Ground track

The orbit data is extracted from the following two-line orbital elements,

1 05175U 71035B   15115.52187357  .00000371  00000-0  13149-3 0  9997
2 05175 074.0492 210.9471 0031106 254.7967 104.9746 14.37676745302311
Epoch (UTC): 25 April 2015 12:31:29
Eccentricity: 0.0031106
inclination: 74.0492°
perigee height: 744 km
apogee height: 788 km
right ascension of ascending node: 210.9471°
argument of perigee: 254.7967°
revolutions per day: 14.37676745
mean anomaly at epoch: 104.9746°
orbit number at epoch: 30231

The dashed part of the orbit path shows where the satellite is in the earth's shadow,  

DLR